Theta_e
289 289 291 292 294 294 294 294 295 295 295 293 293 293 293 293 293 294 294 294 294 295 295 295 296 296 295 294 294 294 294 294 294 295 296 296 295 295 295 295 295 295 295 295 295 296 296 296 297 297 297 298 298 297 297 297 296 296 296 296 296 296 295 295 295 294 294 294 294
288 289 290 294 295 294 293 293 294 294 294 293 293 293 293 293 294 294 294 294 295 295 295 296 295 295 295 294 295 294 294 294 294 295 295 295 295 295 295 295 295 295 295 295 295 295 296 296 296 297 297 298 297 297 297 298 297 297 296 295 296 296 296 296 296 295 295 295 295
288 289 289 290 290 290 291 292 292 292 291 292 293 293 293 294 294 294 294 295 294 295 295 295 295 295 294 295 295 295 295 295 294 295 295 295 295 295 295 295 295 295 295 296 295 296 296 296 296 297 297 297 297 297 297 297 297 297 297 296 297 297 298 297 297 297 297 296 295
288 288 289 289 289 289 290 292 292 292 292 293 292 292 293 294 294 295 294 294 294 294 295 295 295 295 295 295 295 295 295 296 295 295 295 295 295 294 294 294 294 294 294 294 294 294 295 295 296 297 297 296 296 296 296 297 297 297 297 297 298 298 298 299 299 298 298 298 296
288 289 289 289 289 290 290 290 291 292 292 293 293 293 294 294 294 294 294 295 295 295 295 295 295 295 296 296 295 295 295 295 296 296 295 294 294 294 294 294 294 294 294 294 294 294 294 294 296 296 296 296 296 296 296 296 296 297 297 298 298 298 298 299 299 299 299 299 298
289 289 289 290 289 290 291 291 291 291 292 293 293 293 293 294 295 295 295 295 295 295 295 295 296 296 296 296 295 295 294 294 295 294 294 293 293 294 293 293 293 293 294 294 293 294 294 294 295 296 296 296 296 296 296 296 296 296 297 298 298 298 298 298 299 299 299 299 299
289 289 289 290 290 290 291 291 291 291 292 292 292 292 293 293 294 293 294 294 295 295 295 296 296 296 296 295 294 294 294 294 294 293 293 293 293 293 293 293 293 293 293 293 293 294 294 294 295 295 296 297 296 296 295 295 296 296 296 296 297 298 298 298 298 298 298 298 298
289 289 290 290 290 290 290 290 291 291 292 293 293 293 292 293 293 293 293 294 294 295 296 296 295 295 294 294 294 294 293 293 293 293 293 293 293 292 292 292 292 292 293 293 293 293 294 294 295 295 295 295 296 295 295 294 294 294 295 295 296 297 297 297 297 298 297 297 296
289 290 290 290 290 291 291 291 291 291 292 292 292 292 293 293 293 293 294 294 295 296 296 295 295 294 294 293 293 293 293 293 293 293 293 293 293 293 293 293 293 293 293 293 293 293 293 294 295 295 295 295 295 295 295 294 293 293 293 294 295 296 296 297 297 297 296 296 296
289 290 290 291 290 291 291 291 291 291 292 292 292 292 293 295 295 295 294 295 296 295 295 295 294 294 294 293 293 293 293 294 294 294 294 294 294 294 294 294 293 293 294 294 294 294 294 294 294 294 294 295 294 294 294 294 294 293 293 294 294 294 294 295 295 296 296 296 296
289 290 290 291 291 292 292 291 292 293 293 293 293 293 293 294 294 294 295 295 295 294 294 294 294 294 294 294 294 294 294 294 294 294 294 294 294 294 294 294 294 294 294 294 294 294 294 294 294 294 294 294 294 294 294 294 293 293 293 294 294 294 294 294 294 295 295 296 296
290 290 291 291 291 292 292 291 292 293 293 293 293 293 293 293 293 294 294 294 294 294 294 294 294 294 294 295 295 295 295 295 295 294 294 294 294 294 294 294 294 294 294 294 294 295 295 294 294 293 293 293 294 294 294 293 293 293 293 293 293 293 293 294 294 295 295 296 296
290 291 291 292 292 291 291 292 293 293 293 293 293 293 293 293 294 294 294 294 294 294 294 295 295 295 295 295 295 295 295 294 294 294 294 294 294 294 294 294 294 294 294 294 295 295 295 294 293 293 293 293 293 294 294 293 293 292 292 292 292 293 293 293 294 294 295 295 295
290 291 291 292 291 292 292 292 293 293 293 293 293 293 293 293 294 294 294 294 294 294 294 294 295 295 295 295 294 294 294 294 294 294 294 294 294 294 294 294 294 294 294 294 295 294 294 294 294 293 293 293 293 293 293 293 293 293 293 292 292 292 293 293 294 294 295 295 295
290 291 291 291 291 292 292 292 293 293 293 293 293 293 293 294 294 294 294 293 293 293 294 294 294 295 295 294 294 294 294 294 294 293 293 294 294 294 294 294 294 294 294 295 295 295 294 294 294 294 294 293 293 293 293 293 294 293 294 294 294 294 294 294 294 294 295 295 295
290 291 291 291 291 291 292 292 293 293 293 293 293 293 293 293 294 294 294 293 293 294 294 293 293 294 294 294 294 294 294 293 293 293 293 293 294 294 294 294 294 295 295 295 295 295 294 295 295 294 294 294 294 294 294 294 294 294 294 295 295 295 295 295 295 295 295 295 295
290 291 291 291 291 291 291 291 292 292 293 293 293 293 293 293 293 293 294 294 293 293 293 293 293 293 294 294 294 294 294 293 293 293 294 294 294 294 294 295 295 295 295 295 294 294 295 295 295 295 295 295 295 294 294 294 295 295 295 295 295 295 295 295 296 296 296 296 296
290 290 290 290 290 290 291 291 292 292 292 292 292 292 293 293 293 293 293 293 293 293 292 293 293 293 293 293 293 294 294 294 294 294 294 294 295 295 295 295 295 295 295 294 294 294 295 295 295 295 295 295 295 295 295 295 295 295 295 295 295 295 295 295 295 296 296 296 297
290 290 290 290 290 291 291 291 292 292 292 292 292 292 292 292 292 292 292 292 293 292 292 292 292 293 293 293 293 294 294 294 294 294 295 295 295 295 295 295 295 295 294 295 295 295 295 295 295 296 296 296 296 296 296 296 296 296 295 295 295 295 295 295 295 296 296 296 297
290 290 290 290 291 291 291 291 291 291 292 292 292 292 292 292 292 291 292 292 292 292 292 292 292 292 293 293 293 293 294 295 295 295 295 295 295 295 295 295 295 295 295 295 295 295 296 296 296 296 296 296 296 296 296 296 296 296 296 296 295 295 295 295 295 296 296 297 297
290 290 290 291 291 291 291 291 291 291 291 291 291 291 291 291 291 291 291 292 292 292 292 292 292 292 292 293 293 294 294 295 295 296 296 296 295 295 295 295 295 295 295 295 296 296 296 296 296 296 296 296 296 296 296 296 296 296 296 296 296 295 295 295 295 296 296 297 297
290 290 291 291 291 291 291 291 291 291 291 291 291 291 291 291 291 291 292 292 292 292 292 292 293 293 293 294 294 294 295 296 296 296 296 295 295 295 295 295 295 295 295 295 295 295 296 296 296 296 296 296 296 296 296 296 296 295 295 295 295 295 295 295 295 296 296 296 297
290 290 291 291 291 291 292 291 291 290 290 290 290 291 291 291 291 291 292 292 292 292 293 293 293 294 294 294 294 295 295 295 295 295 295 295 295 295 295 295 295 295 295 295 295 295 296 296 296 296 296 296 297 296 296 296 296 296 295 295 295 295 295 295 296 296 296 296 297
290 290 291 291 291 290 290 290 290 290 290 290 290 291 291 291 291 292 292 292 292 293 293 293 294 294 294 294 295 295 295 295 295 294 295 295 295 295 295 295 295 295 295 296 296 297 297 297 297 297 297 298 297 297 298 297 297 297 296 295 295 295 295 295 296 296 296 296 297
290 290 290 290 290 290 289 289 289 290 290 290 291 291 291 291 291 292 292 292 292 292 293 293 293 294 294 295 295 295 295 295 294 294 294 294 294 294 295 295 295 295 296 297 299 301 301 301 300 299 299 299 299 299 299 299 299 298 297 297 296 296 296 295 296 296 296 296 297
290 290 289 289 289 289 289 289 289 290 290 290 291 291 291 291 292 292 292 292 292 292 292 293 293 294 295 295 295 295 295 295 295 294 294 294 294 294 295 295 295 295 296 298 301 302 303 303 302 302 300 300 300 300 300 300 300 299 299 298 297 297 296 296 296 296 296 296 297
289 289 289 289 289 289 289 289 290 290 290 290 290 291 291 291 291 291 291 291 292 292 292 293 293 295 296 295 295 295 295 295 295 295 295 294 295 295 294 295 295 296 297 299 302 303 303 304 304 303 303 301 300 300 300 300 300 300 299 299 298 298 297 297 296 296 296 297 297
288 288 288 288 289 289 289 290 290 290 290 290 290 291 291 291 291 291 291 291 292 292 293 293 294 295 295 295 295 294 295 295 295 295 295 295 295 295 295 295 295 296 298 301 302 303 304 305 305 305 304 303 301 301 300 300 300 300 299 299 299 298 298 297 297 297 297 297 297
288 288 288 288 288 289 289 289 289 290 290 290 290 291 291 291 291 291 291 291 292 292 293 294 295 295 295 294 294 294 295 295 295 295 295 295 295 295 295 295 295 297 299 302 303 304 304 305 305 306 306 305 302 301 300 300 300 300 300 299 299 298 297 297 297 297 297 297 297
288 288 288 288 288 289 289 289 290 290 290 290 290 290 290 290 291 291 291 291 292 293 293 294 294 294 294 294 294 294 294 295 295 295 295 295 295 295 295 296 296 297 299 302 303 304 304 305 305 306 306 305 304 302 301 301 301 300 300 300 299 298 297 296 297 297 297 297 297
288 288 288 288 288 289 289 289 290 290 290 290 290 290 290 290 291 291 292 292 293 294 294 295 294 294 294 294 294 294 294 295 295 295 295 295 296 296 296 296 296 297 299 302 303 304 305 305 305 306 306 306 304 303 302 301 301 300 300 299 299 298 298 298 298 298 297 297 296
288 288 288 288 288 289 289 289 290 290 290 290 290 290 290 291 291 292 292 293 293 294 294 294 294 293 294 294 294 294 295 295 295 295 296 296 296 296 296 296 296 297 300 302 304 304 305 305 306 306 306 306 305 303 302 301 300 300 300 299 299 298 297 298 298 298 298 297 296
288 288 288 288 288 289 289 290 290 290 290 290 290 290 291 291 292 292 293 293 294 294 293 294 294 294 294 294 294 295 295 295 296 296 297 297 296 296 296 297 297 298 301 303 304 304 305 306 306 306 307 307 305 303 302 301 301 300 300 299 299 298 297 297 297 298 297 297 297
288 288 288 288 288 289 289 290 290 290 290 290 291 291 291 292 292 292 293 293 294 294 294 294 294 294 295 295 295 295 295 296 296 296 296 296 296 296 296 296 297 299 302 304 304 305 305 306 306 306 306 306 304 302 301 301 301 300 300 299 298 297 296 296 296 297 297 298 298
288 288 288 288 289 289 290 290 290 291 290 291 291 291 291 291 292 292 293 294 294 294 294 295 295 295 295 295 296 295 296 296 296 296 296 296 296 296 296 297 297 299 302 304 304 305 305 306 306 306 305 305 303 302 301 301 300 300 299 298 297 296 296 296 297 297 298 298 298
288 288 288 289 289 290 291 291 291 291 291 291 291 291 291 291 292 293 293 295 295 294 294 295 295 295 295 295 296 296 296 296 296 296 296 297 297 297 296 297 297 299 302 304 304 305 305 305 305 305 305 304 302 301 300 300 300 299 297 296 294 294 294 295 297 297 298 298 298
288 288 289 290 290 291 291 291 291 291 291 291 291 291 291 291 292 293 294 295 294 294 294 295 295 295 295 295 295 296 296 296 296 296 296 297 297 296 296 297 297 298 301 303 304 304 305 305 305 305 304 302 301 300 300 300 299 297 296 294 294 294 294 295 296 297 297 297 297
289 289 290 291 291 291 291 291 291 291 291 291 291 291 291 292 292 293 294 295 294 294 294 294 295 295 295 295 296 296 296 296 297 297 296 296 297 297 297 297 297 298 300 303 304 304 305 305 305 305 303 301 300 300 300 299 297 295 294 294 295 295 295 296 296 297 297 297 298
290 291 291 292 292 291 291 290 290 291 291 291 291 292 292 292 293 294 295 295 295 294 294 295 295 295 296 296 296 296 296 296 297 297 297 296 297 298 298 298 298 299 300 302 303 304 304 304 304 304 303 301 300 300 300 299 297 295 294 294 296 296 296 296 297 297 297 297 300
291 292 292 292 292 291 291 290 290 291 291 291 292 292 292 293 293 294 295 295 295 295 295 295 295 295 296 297 296 296 296 296 296 296 297 297 298 299 301 300 298 298 299 301 302 303 303 303 303 303 303 301 300 299 299 299 298 297 296 296 296 296 296 296 297 297 297 296 299
292 293 293 292 291 291 291 290 291 291 292 292 292 292 293 294 294 294 294 295 295 295 295 295 295 295 295 297 296 295 295 295 296 296 297 298 299 300 301 299 298 297 297 299 301 302 303 303 303 303 303 302 300 299 299 299 298 297 296 295 294 295 295 295 296 296 296 296 297
Wind_Speed
4 4 4 4 5 5 5 5 5 5 5 5 5 5 5 5 6 6 6 5 6 6 6 6 6 7 7 8 9 9 9 9 9 10 11 11 10 10 10 9 9 9 9 9 9 8 8 8 7 6 6 6 6 6 6 6 6 6 7 7 7 7 7 9 9 9 9 9 7
5 5 5 6 6 5 5 5 5 6 5 5 5 5 5 5 6 6 6 6 6 6 6 6 6 7 8 10 9 9 10 10 10 10 11 10 10 10 10 9 9 9 9 9 9 8 7 8 7 7 6 6 6 6 6 6 6 6 7 7 6 6 6 7 8 8 9 8 7
5 5 5 5 5 5 5 5 6 6 6 6 5 5 5 5 5 6 6 6 6 6 6 7 7 8 9 10 10 9 9 10 11 10 10 10 10 10 9 9 9 9 10 9 9 8 8 8 8 8 7 7 7 7 7 7 6 7 7 7 6 5 5 6 6 7 7 7 7
5 5 5 6 7 7 6 6 7 7 7 6 6 6 5 5 5 6 6 7 7 7 7 7 8 8 9 10 10 10 10 11 11 11 10 10 10 10 10 9 9 9 9 9 9 9 9 8 7 7 7 8 9 8 7 7 7 7 6 6 5 6 6 6 6 6 6 7 7
5 5 5 6 7 7 7 6 7 8 7 6 6 6 6 6 6 6 6 7 7 8 8 9 9 9 10 10 11 12 11 11 11 11 10 10 9 9 9 9 9 9 9 9 9 9 9 8 7 7 7 8 8 7 8 8 8 7 6 6 5 5 5 6 6 6 6 6 6
6 6 6 6 7 7 7 6 7 8 7 6 7 7 7 7 7 7 8 9 9 10 10 11 11 11 11 11 11 11 11 10 10 9 9 9 9 9 9 9 9 9 8 8 9 9 9 8 7 7 7 8 8 8 8 9 8 7 7 6 6 5 5 6 6 6 7 8 8
6 6 7 7 7 7 7 7 7 7 7 7 8 9 9 9 9 10 10 10 10 10 10 10 10 11 11 11 11 11 10 10 9 9 9 9 9 9 9 9 9 9 8 9 9 9 9 8 7 7 8 8 8 8 8 8 8 7 7 7 6 6 6 7 6 6 8 10 11
6 6 6 7 7 8 8 8 7 7 7 7 8 10 11 11 11 11 11 10 10 9 9 9 10 11 11 11 11 11 10 10 10 9 9 8 9 9 9 9 9 9 9 9 9 9 9 8 7 7 7 7 7 8 8 9 9 9 9 9 8 7 6 7 6 7 8 10 11
6 6 7 7 7 8 8 8 8 8 8 8 9 10 11 11 11 11 11 10 10 10 10 9 11 11 12 11 11 10 10 9 9 9 9 8 9 9 9 9 9 9 9 9 9 9 9 8 7 8 8 8 8 9 9 10 11 11 11 10 9 8 7 7 7 8 9 10 11
7 7 7 7 7 8 8 8 8 8 8 9 10 10 11 11 11 11 10 9 10 10 10 9 10 11 11 11 10 10 9 9 9 9 9 10 10 10 10 10 10 10 10 9 9 9 9 8 8 9 9 9 10 11 12 12 13 13 12 10 10 11 11 9 9 9 10 10 11
7 7 7 7 8 8 8 8 8 8 9 9 10 10 10 10 10 10 10 9 10 10 10 10 10 10 10 10 9 9 9 9 9 10 10 11 11 11 11 11 11 11 11 10 9 9 9 8 9 10 11 10 11 12 12 13 13 13 13 12 12 13 13 12 11 10 10 10 11
7 7 7 7 8 8 8 8 8 8 9 9 10 10 9 9 9 10 10 10 10 11 11 11 11 11 11 10 10 10 11 11 11 11 12 12 12 12 12 12 12 12 12 12 10 9 9 10 10 11 12 12 11 10 11 12 12 13 13 13 13 13 14 14 13 12 10 10 11
7 7 7 8 8 8 8 8 8 8 8 9 9 9 9 9 10 10 11 11 11 11 11 12 12 13 12 12 12 12 12 12 13 13 13 13 13 13 13 13 13 13 13 12 11 10 10 11 12 12 13 13 11 11 12 12 13 13 13 13 13 13 14 14 14 12 11 11 11
7 7 8 8 8 8 8 8 8 8 8 9 9 9 9 10 11 11 11 11 12 12 12 12 12 12 12 13 13 13 13 13 13 14 14 14 14 14 14 13 13 13 13 12 12 11 12 12 12 13 13 14 13 13 13 13 12 13 13 13 14 14 14 14 13 12 11 11 11
8 8 8 8 8 8 8 8 8 8 9 10 10 10 10 10 11 11 12 12 12 12 12 12 11 12 12 13 13 14 14 14 14 14 14 15 14 14 14 14 14 14 14 13 13 13 13 13 13 13 13 14 14 13 13 13 13 13 14 14 15 15 15 14 13 12 11 11 11
8 8 8 8 8 8 8 8 7 8 9 10 10 11 11 11 11 11 12 13 12 12 11 12 12 12 12 13 13 14 14 14 14 14 15 15 15 15 15 15 15 15 15 15 15 14 14 14 13 13 13 14 14 14 14 14 14 14 15 15 16 16 15 14 13 12 12 12 12
8 8 8 8 8 8 8 8 8 9 10 11 11 11 11 11 11 11 12 13 12 12 12 13 12 12 12 13 13 13 14 14 14 14 15 15 15 16 16 16 16 16 16 16 16 15 15 14 13 13 13 14 14 14 14 14 13 13 14 14 14 14 14 14 14 13 13 13 14
9 9 8 8 9 9 9 10 10 10 11 12 12 12 12 11 12 12 12 13 13 13 14 14 13 13 13 14 13 13 13 14 15 15 15 15 16 16 16 16 16 16 16 16 16 16 15 15 14 14 13 14 14 14 13 13 13 13 13 13 14 14 14 14 13 13 13 14 14
9 9 9 9 9 10 10 11 11 11 12 12 12 12 12 12 13 13 13 13 13 14 14 15 14 14 14 14 14 14 14 14 15 16 16 16 16 16 16 16 16 16 16 16 16 16 15 15 15 14 14 14 14 14 14 14 13 13 13 13 13 13 13 13 13 13 13 14 14
9 9 9 9 10 10 10 11 11 12 12 12 12 13 13 13 13 13 14 14 14 14 14 15 14 14 14 15 15 15 14 14 15 16 16 16 16 16 17 16 16 16 16 16 16 16 16 16 15 15 15 15 15 15 15 15 14 14 13 13 12 13 13 13 13 13 13 14 14
9 9 10 10 10 10 11 11 11 11 12 12 12 13 13 13 13 14 14 14 14 14 14 15 15 15 15 15 16 16 15 14 15 16 16 16 17 17 17 17 17 16 16 16 16 16 16 16 16 15 15 15 16 15 15 15 15 14 14 13 13 13 13 14 14 14 14 14 14
9 9 10 10 10 10 11 11 11 11 12 12 12 13 13 14 14 14 14 14 14 14 15 15 15 15 16 16 16 16 16 15 15 16 16 16 17 17 17 17 17 16 16 16 16 16 16 16 16 16 15 15 15 15 15 15 15 15 14 14 14 14 14 15 15 15 15 15 15
10 9 9 10 10 10 11 11 11 11 12 12 13 13 14 14 14 14 15 14 14 15 15 15 15 15 16 17 17 18 17 17 16 16 16 16 17 17 17 16 16 16 16 15 15 15 15 15 16 16 15 15 15 15 15 15 15 15 15 15 14 15 15 15 15 15 15 15 15
10 10 9 9 9 10 10 11 11 12 12 13 14 14 14 14 15 15 15 15 15 16 16 15 15 16 17 18 18 18 18 18 17 17 17 17 17 16 16 15 15 15 15 14 15 16 16 15 14 13 13 13 13 13 14 14 15 15 15 15 15 15 15 15 16 16 15 15 14
10 10 9 9 9 10 10 11 12 12 13 14 14 14 14 15 15 15 15 16 16 16 17 16 16 17 17 17 17 17 17 17 17 17 17 17 17 16 16 15 14 14 14 14 19 23 24 22 17 14 12 11 11 12 13 14 15 15 15 14 14 14 14 15 15 15 15 15 14
9 9 9 9 9 10 11 12 12 13 14 14 14 14 15 15 15 15 16 17 17 17 17 17 17 17 17 16 17 17 16 16 16 16 17 17 17 17 16 15 14 13 13 16 22 25 28 28 26 22 17 13 12 12 12 13 14 14 14 14 13 13 13 12 13 13 13 13 14
9 9 9 9 10 11 12 13 13 14 14 14 15 15 15 15 15 15 16 17 17 17 17 16 16 16 16 15 16 17 17 16 16 17 17 18 18 18 17 15 14 13 14 19 24 27 29 29 30 28 24 17 14 13 12 11 12 13 13 12 11 11 11 11 11 11 12 13 14
8 8 9 10 11 12 13 13 14 14 14 14 15 15 15 15 16 16 16 16 17 16 16 15 15 14 13 13 15 16 17 18 17 17 17 18 18 18 17 15 14 15 17 23 27 29 30 30 30 30 27 22 16 13 11 11 12 11 10 9 9 9 10 10 9 10 11 13 13
8 9 10 11 12 13 14 14 14 14 14 15 15 15 15 16 16 16 16 17 17 16 15 14 13 12 12 13 15 17 18 19 18 18 17 18 18 18 17 16 16 17 21 26 29 30 30 30 30 30 29 27 18 12 9 9 9 9 8 7 7 7 8 8 7 8 10 11 11
9 10 11 12 13 14 14 14 14 14 14 14 15 15 16 16 16 16 17 17 17 16 15 14 14 14 15 16 17 17 18 18 17 17 18 19 19 19 18 18 17 18 21 26 29 30 30 30 30 30 29 28 22 16 11 9 9 9 8 7 6 7 7 7 8 9 10 10 9
10 11 12 13 13 14 14 14 14 14 14 14 15 15 16 16 17 17 17 17 17 17 16 16 17 17 18 17 17 17 18 18 17 17 17 18 19 19 19 18 18 19 22 26 29 30 30 30 29 29 29 28 22 16 11 9 9 8 7 6 7 7 7 7 8 8 9 9 8
11 12 12 13 14 14 14 14 14 14 15 15 15 16 16 16 16 16 16 16 17 17 17 17 17 18 18 17 17 17 18 18 18 18 18 18 18 19 19 18 18 19 22 26 28 29 29 29 28 28 28 27 22 16 12 10 9 9 8 8 8 8 7 7 6 7 8 9 8
11 12 13 13 14 14 14 14 14 15 15 15 16 16 16 17 17 16 16 16 16 17 17 17 17 17 18 17 17 17 18 18 18 19 19 19 19 19 19 18 17 18 21 25 27 28 28 27 27 27 26 26 20 15 11 10 9 8 7 7 7 7 7 7 7 7 8 9 9
12 13 13 14 14 14 15 15 15 15 15 16 16 16 17 17 17 17 17 16 16 16 16 16 16 16 17 17 17 17 18 17 18 18 19 19 19 19 18 16 14 16 20 25 26 27 27 26 26 25 25 24 17 12 9 9 8 8 7 7 6 7 7 7 7 8 8 9 9
12 13 14 14 14 14 15 15 15 15 16 16 17 17 17 17 17 17 17 17 17 16 15 15 15 15 16 16 17 17 18 19 19 19 19 19 18 18 18 17 15 17 21 25 26 26 25 25 24 24 23 20 13 9 8 8 8 8 7 7 6 7 7 7 7 8 8 9 9
13 13 14 15 15 15 15 16 16 16 17 17 17 17 17 17 16 16 16 17 17 16 15 15 15 16 16 17 17 17 17 18 18 19 19 19 19 19 18 18 17 18 21 24 25 24 24 24 23 23 21 16 10 7 6 7 7 7 6 6 6 7 7 7 8 8 8 8 9
13 14 15 15 15 15 16 16 16 17 17 18 17 17 17 17 16 16 16 16 15 15 15 16 16 16 17 17 17 17 17 17 18 19 19 20 19 19 19 18 17 18 20 22 23 23 22 22 22 21 18 12 8 6 6 6 6 5 5 6 6 6 7 7 7 8 8 8 9
13 14 15 16 16 15 15 15 16 17 18 18 17 17 16 16 15 15 15 15 15 15 16 16 16 17 17 17 17 18 18 18 18 19 20 20 19 19 19 19 17 17 17 19 21 21 21 20 20 19 16 10 8 7 6 6 5 5 5 5 5 6 6 6 6 6 8 9 11
14 15 15 15 15 15 16 16 17 17 18 18 17 17 16 16 15 15 15 15 15 15 15 16 17 17 17 18 18 18 19 19 19 19 20 20 20 20 20 19 17 16 16 18 20 20 20 19 19 18 16 11 8 6 6 5 5 4 5 5 5 5 6 6 5 6 7 9 13
14 14 14 14 15 16 16 17 17 17 17 17 17 17 16 16 15 15 16 15 15 15 15 15 16 17 17 18 18 18 18 19 19 19 20 20 21 22 22 20 17 15 15 17 18 19 19 18 18 18 16 11 7 6 5 5 4 4 4 4 4 4 4 5 5 5 5 7 10
14 14 14 15 15 16 17 17 18 17 16 16 16 16 15 16 16 16 15 15 15 14 14 13 15 17 18 18 17 17 18 19 19 20 20 21 22 22 21 18 16 14 13 14 16 17 17 17 17 17 15 11 7 6 5 5 4 4 4 4 4 4 4 4 4 4 4 5 6
Wind_Direction
271 272 273 277 282 284 286 287 287 286 285 284 285 286 286 288 288 288 288 288 287 287 288 287 286 287 286 285 282 282 281 280 278 277 277 277 277 277 278 278 278 278 279 279 280 282 282 283 282 282 282 281 280 278 276 273 271 270 269 266 268 269 269 270 269 267 262 257 253
276 275 275 280 287 291 292 293 292 290 289 286 285 285 285 286 286 287 287 286 284 285 286 287 286 285 285 283 281 280 280 280 278 277 277 277 277 276 276 277 277 277 278 279 280 281 283 284 284 285 285 284 284 283 282 279 277 275 273 269 268 269 271 272 274 274 271 266 260
280 281 283 285 289 292 294 295 293 291 288 287 286 284 284 284 285 285 286 285 284 284 285 286 286 285 283 283 282 280 278 278 278 278 278 277 277 276 276 276 276 277 278 279 280 281 282 284 285 286 286 287 288 288 287 285 283 280 278 273 272 273 275 277 282 285 286 285 276
283 285 287 288 287 286 287 290 292 292 290 290 288 286 284 284 284 284 285 286 286 285 284 284 286 286 286 285 283 281 279 278 278 279 278 278 277 276 275 275 275 276 276 277 277 278 279 280 282 284 286 287 287 286 286 286 284 282 279 277 277 276 277 278 280 283 286 288 287
288 286 286 287 287 286 285 286 289 290 290 292 293 292 291 289 288 288 288 289 289 287 287 286 286 287 286 284 282 281 279 279 279 279 279 278 277 276 274 273 273 273 273 274 274 275 276 277 279 281 283 284 284 283 284 285 283 282 279 278 276 274 271 270 268 266 266 269 277
293 292 291 290 288 288 288 288 287 288 291 294 295 294 293 293 293 293 292 291 290 289 288 287 286 285 285 283 282 281 281 280 279 278 277 277 276 274 273 271 269 269 271 272 271 273 274 275 278 280 281 281 281 280 281 282 282 280 277 275 272 270 266 263 262 259 257 256 258
292 293 294 293 293 292 293 292 292 293 293 295 295 294 293 293 293 292 291 290 291 291 290 288 287 286 285 284 284 283 283 282 279 276 274 274 272 271 269 269 268 268 268 270 271 272 273 274 277 279 280 280 280 279 278 277 277 275 274 271 269 267 265 262 261 259 257 256 255
292 292 292 293 293 293 293 292 295 296 297 297 296 294 293 293 292 292 291 292 291 291 290 290 288 286 284 284 284 284 282 281 279 276 272 270 269 269 268 268 269 269 269 270 271 272 272 273 275 276 277 278 277 276 275 273 272 272 271 271 270 267 264 263 261 258 256 255 254
297 296 295 295 295 294 293 293 294 295 296 296 294 293 293 293 293 293 294 294 293 292 292 291 289 288 286 285 284 283 281 280 278 276 273 271 271 272 272 273 274 275 275 274 274 273 272 272 272 273 273 274 274 274 273 272 271 270 270 270 270 268 264 262 259 256 254 253 253
299 299 299 300 298 297 296 297 297 296 295 295 294 293 293 295 296 296 295 295 296 296 295 294 293 291 290 287 285 282 280 279 279 279 280 280 280 281 281 282 282 281 281 279 277 275 274 274 273 271 271 271 271 272 272 271 270 269 268 268 269 268 266 263 260 256 254 253 252
297 298 300 301 300 301 301 302 302 300 299 298 297 297 297 298 299 298 297 298 299 299 298 297 296 295 293 291 289 288 287 287 289 290 290 291 291 290 289 288 286 285 283 281 280 279 277 276 273 271 269 268 269 270 270 269 268 267 266 266 267 267 267 266 263 259 256 253 252
298 299 300 300 302 303 304 304 304 303 302 301 301 301 301 301 300 300 301 302 302 302 302 303 304 303 301 300 299 299 299 299 299 298 298 297 296 294 293 291 289 286 285 283 282 280 278 276 274 272 270 268 268 268 268 267 266 265 264 264 264 265 266 266 264 261 258 255 253
299 301 303 303 304 304 305 304 304 303 303 303 303 303 303 303 303 304 305 306 306 306 307 307 307 306 305 304 304 304 303 302 302 300 299 298 297 296 294 292 290 288 286 285 283 281 278 276 274 273 271 269 268 266 266 265 265 264 264 264 264 264 264 265 263 262 259 256 255
300 302 302 303 304 305 305 304 304 304 304 304 304 304 305 305 306 307 307 307 306 306 305 305 304 303 302 302 302 302 301 300 300 298 297 296 295 294 293 291 290 289 287 286 283 280 277 275 273 272 271 269 267 266 265 264 264 264 263 264 264 263 263 263 261 260 257 255 254
302 302 302 302 303 304 303 303 303 304 304 304 304 305 305 306 306 307 306 305 303 302 302 302 301 300 299 299 299 299 299 298 298 296 295 294 293 292 292 291 290 289 288 286 284 281 278 275 273 271 269 268 267 266 266 265 264 264 263 263 264 264 263 262 259 257 254 252 252
302 302 302 302 302 302 302 301 302 303 304 304 305 305 305 305 305 305 304 303 302 301 300 299 298 298 298 297 297 297 297 296 295 294 293 293 292 292 291 291 290 289 288 287 285 282 279 275 273 270 268 267 267 267 267 266 266 265 264 264 265 265 264 262 259 256 253 250 250
302 301 301 301 300 300 299 299 300 302 303 303 304 304 304 304 304 304 303 302 301 300 299 297 297 297 297 296 296 296 295 295 294 293 292 292 291 291 290 290 289 288 287 285 284 281 278 275 271 268 267 266 267 267 267 266 265 264 263 262 262 261 261 260 258 256 254 252 250
302 301 301 300 299 298 298 298 299 300 301 302 303 303 303 303 303 302 301 300 300 299 298 297 296 296 295 295 295 294 293 293 292 291 290 290 289 289 288 287 286 285 285 283 282 280 278 274 271 268 266 266 266 267 266 266 264 262 261 260 259 258 257 256 255 254 253 252 251
302 301 301 299 298 298 298 299 300 301 301 302 303 303 303 303 302 302 301 300 299 298 298 297 296 295 294 294 293 293 292 291 291 290 289 288 287 286 285 285 284 283 283 282 280 279 277 275 273 270 268 268 268 269 269 269 267 264 262 260 258 256 255 254 252 251 250 249 249
301 300 299 298 298 298 299 300 300 301 302 303 304 304 304 303 303 302 302 301 300 299 298 297 296 295 294 293 293 292 291 290 290 289 287 286 286 285 284 284 284 283 282 281 281 280 279 277 275 273 272 272 273 273 273 272 270 268 265 262 259 256 254 252 250 249 247 246 246
299 298 298 298 298 299 299 300 301 303 304 304 304 304 304 304 304 303 303 302 301 300 298 296 295 295 294 294 293 292 291 290 289 287 286 285 284 284 284 284 284 284 283 282 281 281 280 279 277 275 275 274 274 274 273 272 270 267 265 262 259 256 253 251 249 247 246 244 244
299 298 298 299 299 300 301 303 304 305 305 305 305 305 305 306 305 305 304 303 302 300 298 297 296 295 295 295 294 293 292 290 288 286 285 284 284 284 284 284 284 284 283 282 282 281 280 278 277 275 274 273 272 270 269 267 265 263 260 257 254 252 251 250 248 246 245 244 244
299 299 300 300 302 303 305 306 307 307 307 307 307 307 307 307 307 306 305 304 302 300 299 298 297 297 297 296 294 293 291 289 287 285 283 282 282 283 283 283 283 283 282 282 281 280 279 278 276 274 272 269 268 266 265 264 262 260 257 253 251 249 248 247 246 245 244 243 243
301 302 303 305 307 308 308 309 309 309 309 309 309 309 309 309 308 307 306 304 302 301 301 300 300 298 297 295 293 291 290 289 287 286 284 283 282 282 283 283 282 282 282 281 280 280 279 277 275 273 270 267 265 263 262 261 260 257 254 251 248 247 246 246 246 245 244 243 243
304 305 307 309 310 310 311 311 310 310 310 310 311 311 310 309 308 307 305 304 303 302 302 301 299 298 296 294 292 291 290 289 288 287 286 285 284 283 283 283 282 281 281 280 281 281 281 280 279 276 272 269 266 264 263 262 261 258 254 249 246 245 245 246 246 246 245 244 243
308 310 311 312 312 313 312 312 311 311 311 312 312 311 310 309 307 306 305 304 303 302 301 300 298 297 296 295 293 292 291 290 288 287 287 287 285 284 283 282 281 280 280 280 281 282 282 282 281 280 277 273 270 268 266 266 264 261 257 251 247 245 244 245 245 245 245 245 243
313 314 314 315 315 314 313 312 312 313 313 313 312 311 309 308 307 306 304 303 302 301 300 299 297 297 296 295 294 293 292 291 289 289 288 287 287 285 283 281 280 279 279 280 281 282 283 283 282 281 280 276 273 271 269 268 265 262 258 253 247 243 241 241 242 243 244 244 244
316 316 317 317 316 315 314 314 314 314 313 312 311 310 308 307 305 304 303 302 301 300 300 299 298 298 297 297 295 294 293 292 291 290 289 288 286 285 283 281 279 278 278 279 281 282 283 284 283 283 282 280 277 273 270 267 264 261 256 250 243 238 235 233 236 240 244 246 245
317 317 318 318 316 315 315 315 314 313 312 311 309 308 307 305 304 303 302 301 301 300 300 300 300 299 298 297 295 294 293 292 292 291 290 289 287 285 283 281 279 277 277 280 282 283 284 284 284 284 283 282 279 275 268 262 260 257 252 243 237 234 233 230 232 238 244 247 245
319 319 318 317 316 315 315 314 313 311 310 308 307 306 305 304 303 303 302 301 300 300 300 300 300 299 297 295 295 294 293 292 292 291 290 288 287 285 283 281 279 278 279 281 283 284 285 285 284 284 283 281 279 275 269 262 260 257 253 244 238 236 234 229 233 240 244 246 242
320 319 318 316 315 314 313 312 310 309 308 307 306 305 305 304 303 302 301 301 301 301 300 300 298 296 295 293 293 292 292 292 291 290 289 288 287 285 284 282 279 279 280 282 284 285 285 285 284 283 282 281 278 275 269 263 262 260 256 248 241 235 231 228 234 239 243 241 236
319 318 317 315 313 312 310 310 309 307 307 306 305 305 304 303 302 301 301 302 302 302 302 301 299 297 295 294 293 292 292 292 291 290 289 288 287 286 284 282 280 279 280 283 284 285 285 285 284 284 283 282 280 276 271 267 265 263 258 251 240 232 226 223 229 233 234 232 228
318 317 315 313 311 309 308 307 306 306 306 306 305 304 303 303 303 303 303 304 304 303 302 300 299 298 297 296 295 294 293 292 291 291 290 290 289 287 285 283 280 280 281 284 285 286 287 287 286 286 285 286 284 282 278 275 271 266 258 246 232 223 219 218 222 225 226 226 225
317 315 313 310 308 307 306 305 306 306 307 307 305 304 304 304 305 305 306 305 304 303 301 299 298 297 296 295 295 294 293 294 293 293 292 292 290 288 286 283 280 281 283 285 287 288 289 289 290 290 290 291 290 287 282 278 275 268 257 241 227 219 217 218 219 221 223 224 225
315 313 310 308 306 305 305 306 307 308 308 307 306 306 305 305 306 306 305 305 304 303 301 299 298 297 296 295 294 293 293 294 294 294 294 293 291 289 287 284 281 282 284 286 288 290 291 292 292 292 292 292 291 286 280 274 270 264 254 238 224 217 214 214 217 220 223 224 226
312 310 307 306 305 305 306 308 309 309 309 308 308 307 307 306 306 305 305 305 304 303 301 300 300 299 298 297 296 295 295 294 294 294 294 294 293 291 289 287 284 284 285 287 289 291 291 292 292 292 292 291 287 280 271 264 261 254 242 226 217 213 213 214 217 219 221 222 223
309 307 306 305 306 307 308 309 309 310 309 309 308 308 307 306 306 305 306 307 305 304 302 302 301 301 300 299 298 297 296 294 294 294 294 295 294 293 291 289 286 284 285 287 290 291 292 292 292 292 292 291 286 277 268 260 253 239 222 212 212 214 216 219 220 221 220 219 219
306 305 305 306 307 309 310 310 310 310 309 308 307 307 307 306 306 306 307 308 307 305 304 303 302 301 300 300 299 297 296 295 295 295 295 295 294 292 290 288 286 284 285 288 292 294 295 295 295 295 294 290 285 278 272 264 249 228 211 204 209 215 220 224 225 224 222 220 220
305 306 307 308 309 310 311 311 310 309 308 308 307 307 307 307 307 307 308 309 307 304 302 302 301 300 300 301 300 299 298 297 296 296 295 295 293 292 290 289 287 287 288 292 295 297 298 298 297 295 293 288 282 278 275 271 251 228 212 202 208 216 221 225 226 225 224 223 224
306 308 310 311 312 312 312 311 309 308 307 307 307 307 307 308 308 308 308 308 305 303 301 300 300 300 300 301 301 300 299 298 297 296 296 296 294 293 292 291 289 289 290 293 296 297 298 298 296 293 289 283 275 269 268 269 255 234 216 204 206 213 221 224 222 222 222 223 227
310 313 315 315 314 313 311 309 307 306 306 306 306 307 308 309 309 309 308 305 304 303 301 301 300 300 301 302 301 300 300 299 298 298 298 298 297 295 294 291 289 287 288 289 292 294 295 295 293 289 286 278 267 257 254 256 249 234 218 204 204 210 218 220 218 217 216 217 227